Lid_Strength_Index
5 5 5 4 4 3 3 3 2 2 2 2 1 1 1 1 1 1 1 1 1 1 1 1 1 0 0 0 0 0 0 1 1
6 5 5 4 4 3 3 2 2 2 2 2 2 1 1 1 1 1 1 1 1 1 1 0 0 0 0 0 0 0 0 1 1
6 5 5 4 4 3 3 2 2 2 2 2 2 1 1 1 1 1 1 1 1 1 1 1 0 1 0 0 0 0 0 1 1
7 6 5 5 4 3 3 2 2 2 2 2 2 1 1 1 1 1 1 1 1 1 1 1 1 1 0 1 1 0 1 1 1
6 5 5 5 4 3 3 3 3 2 2 2 2 1 1 1 1 1 1 1 1 0 1 0 0 1 1 1 1 1 1 1 1
6 6 5 5 4 4 4 3 3 3 2 2 2 1 1 1 1 1 1 1 1 1 1 1 0 1 1 1 1 1 1 1 1
6 6 5 5 5 4 4 3 3 3 2 2 2 2 2 2 2 1 1 1 1 1 1 1 1 1 1 1 1 1 1 1 1
6 6 6 5 5 5 4 4 3 2 2 2 2 2 2 2 1 1 1 1 1 1 1 1 1 1 1 1 2 3 3 1 1
7 7 6 5 5 4 4 4 3 3 2 2 2 5 2 2 2 1 1 1 1 1 1 1 1 1 1 4 5 5 4 3 3
7 6 6 5 5 4 4 3 3 3 2 2 2 3 2 2 2 2 2 1 1 2 1 1 2 1 2 5 7 5 4 3 3
6 6 5 5 4 4 3 3 2 2 2 2 3 2 2 2 2 2 2 2 2 2 2 2 2 2 4 6 7 7 6 4 3
5 5 5 4 4 3 3 3 2 2 3 2 2 3 2 2 2 2 2 3 3 2 2 3 3 2 5 8 11 10 8 4 3
5 4 4 4 3 4 4 4 2 3 3 3 3 2 2 2 2 3 3 3 4 4 5 6 7 9 9 10 10 10 9 6 4
4 4 5 4 4 5 4 4 3 3 3 3 2 2 3 3 3 4 3 4 5 6 6 7 8 9 9 9 9 10 10 9 7
4 5 5 5 6 5 5 5 3 4 5 2 2 2 2 2 3 4 4 5 5 6 7 7 8 9 9 9 9 9 10 10 9
5 5 5 5 6 6 6 5 4 5 4 3 4 4 4 3 4 4 4 5 5 6 6 7 8 8 8 8 8 8 9 9 8
5 5 5 6 6 7 6 6 6 6 4 4 4 4 4 4 3 4 3 3 4 4 4 5 6 6 8 8 8 6 6 6 7
4 5 5 6 7 7 7 6 6 6 5 4 5 5 5 5 5 6 7 9 8 6 8 6 3 3 4 5 4 5 7 9 11
5 5 6 6 6 7 6 6 6 5 5 5 5 5 5 5 5 6 6 7 9 12 11 12 12 12 6 8 10 12 13 13 11
5 5 5 5 4 4 3 4 3 4 4 6 7 7 7 7 7 7 7 7 8 8 10 10 11 11 10 9 10 12 11 11 11